Weather History for Port Aransas, TX

Change the Weather History Date:

Saturday, October 6, 2012

  Actual Average (KCRP) Record (KCRP)
Temperature  
Mean Temperature 80 °F 77 °F  
Max Temperature 84 °F 86 °F 96 °F (1989)
Min Temperature 77 °F 67 °F 53 °F (1975)
Degree Days  
Heating Degree Days 0 0  
Month to date heating degree days 0  
Since 1 July heating degree days 0  
Cooling Degree Days 16 12  
Month to date cooling degree days 75  
Year to date cooling degree days 3118  
Growing Degree Days 30 (Base 50)    
Moisture  
Dew Point 66 °F    
Average Humidity 63    
Maximum Humidity 74    
Minimum Humidity 51    
Precipitation  
Precipitation 0.00 in 0.12 in 2.26 in (1930)
Month to date precipitation 0.73  
Year to date precipitation 25.05  
Snow  
Snow 0.00 in - - ()
Month to date snowfall  
Since 1 July snowfall  
Since 1 September snowfall  
Snow Depth -    
Sea Level Pressure  
Sea Level Pressure 29.97 in    
Wind  
Wind Speed 8 mph (SE)    
Max Wind Speed 12 mph    
Max Gust Speed 17 mph    
Visibility 10 miles    
Events      
T = Trace of Precipitation, MM = Missing Value Source: NWS Daily Summary

Daily Weather History Graph

Daily Weather History Graph

Search for Another Location

Airport:

Trip Planner

Search our weather history database for the weather conditions in past years. The results will help you decide how hot, cold, wet, or windy it might be!

Date:

Astronomy

Oct. 06, 2012 Rise Set
Actual Time 7:23 AM CDT 7:08 PM CDT
Civil Twilight 7:00 AM CDT 7:31 PM CDT
Nautical Twilight 6:33 AM CDT 7:58 PM CDT
Astronomical Twilight 6:06 AM CDT 8:25 PM CDT
Moon 11:47 PM CDT (10/6) 12:56 PM CDT (10/6)
Length of Visible Light 12h 31m
Length of Day
11h 44m
Waning Gibbous, 65% of the Moon is Illuminated
Oct 6
Waning Gibbous
Oct 8
Last Quarter
Oct 15
New
Oct 21
First Quarter
Oct 29
Full

Hourly Weather History & Observations

Time (CDT) Temp. Heat Index Dew Point Humidity Pressure Visibility Wind Dir Wind Speed Gust Speed Precip Events Conditions
12:15 AM 77.0 °F - 68.0 °F 74% 29.99 in 10.0 mi SSE 8.1 mph - N/A   Clear
12:35 AM 77.0 °F - 68.0 °F 74% 29.99 in 10.0 mi SSE 9.2 mph - N/A   Clear
12:55 AM 77.0 °F - 68.0 °F 74% 29.99 in 10.0 mi SSE 11.5 mph - N/A   Scattered Clouds
1:15 AM 77.0 °F - 68.0 °F 74% 29.98 in 10.0 mi SSE 10.4 mph - N/A   Scattered Clouds
1:55 AM 77.0 °F - 68.0 °F 74% 29.98 in 10.0 mi SSE 11.5 mph - N/A   Scattered Clouds
2:15 AM 77.0 °F - 68.0 °F 74% 29.98 in 10.0 mi SSE 9.2 mph - N/A   Clear
2:35 AM 77.0 °F - 68.0 °F 74% 29.98 in 10.0 mi SSE 8.1 mph - N/A   Clear
2:55 AM 77.0 °F - 68.0 °F 74% 29.97 in 10.0 mi SSE 9.2 mph - N/A   Clear
3:15 AM 77.0 °F - 68.0 °F 74% 29.96 in 10.0 mi SE 6.9 mph - N/A   Scattered Clouds
3:35 AM 77.0 °F - 68.0 °F 74% 29.96 in 10.0 mi SSE 5.8 mph - N/A   Clear
3:55 AM 77.0 °F - 68.0 °F 74% 29.96 in 10.0 mi South 6.9 mph - N/A   Scattered Clouds
4:35 AM 77.0 °F - 68.0 °F 74% 29.96 in 10.0 mi SE 8.1 mph - N/A   Mostly Cloudy
4:55 AM 77.0 °F - 68.0 °F 74% 29.96 in 10.0 mi SSE 8.1 mph - N/A   Mostly Cloudy
5:15 AM 77.0 °F - 68.0 °F 74% 29.97 in 10.0 mi SE 8.1 mph - N/A   Scattered Clouds
5:35 AM 77.0 °F - 68.0 °F 74% 29.97 in 10.0 mi SE 9.2 mph - N/A   Clear
5:55 AM 77.0 °F - 66.2 °F 69% 29.97 in 10.0 mi SE 9.2 mph - N/A   Clear
6:15 AM 77.0 °F - 66.2 °F 69% 29.98 in 10.0 mi SE 6.9 mph - N/A   Clear
6:35 AM 77.0 °F - 66.2 °F 69% 29.98 in 10.0 mi SSE 8.1 mph - N/A   Clear
6:55 AM 77.0 °F - 68.0 °F 74% 29.99 in 10.0 mi SE 5.8 mph - N/A   Mostly Cloudy
7:15 AM 77.0 °F - 66.2 °F 69% 29.99 in 10.0 mi SE 6.9 mph - N/A   Scattered Clouds
7:35 AM 77.0 °F - 66.2 °F 69% 29.99 in 10.0 mi SSE 6.9 mph - N/A   Scattered Clouds
7:55 AM 77.0 °F - 64.4 °F 65% 30.00 in 10.0 mi SSE 6.9 mph - N/A   Clear
8:15 AM 77.0 °F - 64.4 °F 65% 30.00 in 10.0 mi SSE 3.5 mph - N/A   Scattered Clouds
8:35 AM 78.8 °F - 66.2 °F 65% 30.00 in 10.0 mi Calm Calm - N/A   Scattered Clouds
9:15 AM 80.6 °F 82.7 °F 66.2 °F 61% 30.01 in 10.0 mi SSE 4.6 mph - N/A   Overcast
9:35 AM 80.6 °F 82.3 °F 64.4 °F 58% 30.01 in 10.0 mi SSE 4.6 mph - N/A   Mostly Cloudy
9:55 AM 80.6 °F 82.7 °F 66.2 °F 61% 30.02 in 10.0 mi SSE 6.9 mph - N/A   Mostly Cloudy
10:15 AM 82.4 °F 84.6 °F 66.2 °F 58% 30.01 in 10.0 mi SSE 5.8 mph - N/A   Scattered Clouds
10:35 AM 82.4 °F 84.6 °F 66.2 °F 58% 30.02 in 10.0 mi SE 6.9 mph - N/A   Clear
10:55 AM 82.4 °F 85.4 °F 68.0 °F 62% 30.01 in 10.0 mi SE 4.6 mph - N/A   Scattered Clouds
11:15 AM 82.4 °F 84.6 °F 66.2 °F 58% 30.01 in 10.0 mi SE 6.9 mph - N/A   Scattered Clouds
11:35 AM 82.4 °F 83.9 °F 64.4 °F 54% 30.01 in 10.0 mi SE 8.1 mph - N/A   Clear
11:55 AM 82.4 °F 84.6 °F 66.2 °F 58% 30.01 in 10.0 mi SE 8.1 mph - N/A   Clear
12:15 PM 84.2 °F 86.6 °F 66.2 °F 55% 30.01 in 10.0 mi ESE 8.1 mph - N/A   Scattered Clouds
12:35 PM 82.4 °F 83.9 °F 64.4 °F 54% 30.01 in 10.0 mi ESE 6.9 mph - N/A   Clear
12:55 PM 84.2 °F 86.6 °F 66.2 °F 55% 30.00 in 10.0 mi ESE 10.4 mph - N/A   Clear
1:15 PM 82.4 °F 84.6 °F 66.2 °F 58% 29.99 in 10.0 mi ESE 9.2 mph - N/A   Clear
1:35 PM 82.4 °F 84.6 °F 66.2 °F 58% 29.99 in 10.0 mi ESE 9.2 mph - N/A   Clear
1:55 PM 84.2 °F 86.6 °F 66.2 °F 55% 29.98 in 10.0 mi East 8.1 mph - N/A   Clear
2:15 PM 84.2 °F 85.6 °F 64.4 °F 51% 29.97 in 10.0 mi ESE 9.2 mph - N/A   Clear
2:35 PM 84.2 °F 85.6 °F 64.4 °F 51% 29.96 in 10.0 mi SE 6.9 mph - N/A   Clear
2:55 PM 82.4 °F 83.9 °F 64.4 °F 54% 29.95 in 10.0 mi ESE 9.2 mph - N/A   Clear
3:15 PM 82.4 °F 83.9 °F 64.4 °F 54% 29.95 in 10.0 mi ESE 10.4 mph - N/A   Clear
3:35 PM 82.4 °F 83.9 °F 64.4 °F 54% 29.95 in 10.0 mi ESE 9.2 mph - N/A   Clear
3:55 PM 82.4 °F 84.6 °F 66.2 °F 58% 29.94 in 10.0 mi ESE 8.1 mph - N/A   Clear
4:15 PM 82.4 °F 83.9 °F 64.4 °F 54% 29.94 in 10.0 mi East 10.4 mph - N/A   Clear
4:35 PM 82.4 °F 84.6 °F 66.2 °F 58% 29.93 in 10.0 mi ESE 10.4 mph - N/A   Clear
4:55 PM 82.4 °F 84.6 °F 66.2 °F 58% 29.93 in 10.0 mi ESE 10.4 mph - N/A   Clear
5:15 PM 82.4 °F 83.9 °F 64.4 °F 54% 29.92 in 10.0 mi East 9.2 mph - N/A   Clear
5:35 PM 82.4 °F 83.9 °F 64.4 °F 54% 29.92 in 10.0 mi East 10.4 mph 17.3 mph N/A   Clear
5:55 PM 80.6 °F 82.7 °F 66.2 °F 61% 29.92 in 10.0 mi East 11.5 mph - N/A   Clear
6:15 PM 80.6 °F 82.7 °F 66.2 °F 61% 29.93 in 10.0 mi East 9.2 mph - N/A   Scattered Clouds
6:35 PM 80.6 °F 82.7 °F 66.2 °F 61% 29.93 in 10.0 mi East 10.4 mph - N/A   Scattered Clouds
6:55 PM 78.8 °F - 64.4 °F 61% 29.94 in 10.0 mi East 11.5 mph - N/A   Scattered Clouds
7:15 PM 78.8 °F - 64.4 °F 61% 29.94 in 10.0 mi ESE 9.2 mph - N/A   Scattered Clouds
7:35 PM 78.8 °F - 64.4 °F 61% 29.95 in 10.0 mi ESE 6.9 mph - N/A   Scattered Clouds
7:55 PM 78.8 °F - 66.2 °F 65% 29.95 in 10.0 mi ESE 11.5 mph - N/A   Scattered Clouds
8:15 PM 78.8 °F - 64.4 °F 61% 29.96 in 10.0 mi East 9.2 mph - N/A   Mostly Cloudy
8:35 PM 78.8 °F - 66.2 °F 65% 29.96 in 10.0 mi East 8.1 mph - N/A   Scattered Clouds
8:55 PM 78.8 °F - 64.4 °F 61% 29.96 in 10.0 mi East 6.9 mph - N/A   Scattered Clouds
9:15 PM 78.8 °F - 64.4 °F 61% 29.97 in 10.0 mi East 6.9 mph - N/A   Scattered Clouds
11:15 PM 77.0 °F - 64.4 °F 65% 29.99 in 10.0 mi East 8.1 mph - N/A   Scattered Clouds
11:35 PM 77.0 °F - 64.4 °F 65% 29.99 in 10.0 mi East 6.9 mph - N/A   Scattered Clouds
11:55 PM 77.0 °F - 64.4 °F 65% 29.99 in 10.0 mi East 5.8 mph - N/A   Scattered Clouds